,,Stat1,,Stat2,,Stat3,,Stat4,,Wind1,,Wind1,
time,status,PR1M_SUM,status,RH1M_AVG,status,SR1M_AVG,status,TA1M_AVG,status,W1dAve1m,status,W1sAve1m,
1999-12-27, 00:01:00,VALID,0,VALID,99.03,VALID,-0.0509425,VALID,19.5338,VALID,220,VALID,0.0818359,
1999-12-27, 00:02:00,VALID,0,VALID,99.0783,VALID,-0.0679233,VALID,19.5244,VALID,220,VALID,0,
1999-12-27, 00:03:00,VALID,0,VALID,99.133,VALID,0.0509425,VALID,19.5003,VALID,220,VALID,0,
1999-12-27, 00:04:00,VALID,0,VALID,99.1521,VALID,0,VALID,19.5005,VALID,220,VALID,0,
1999-12-27, 00:05:01,VALID,0,VALID,99.1826,VALID,0.0339617,VALID,19.4809,VALID,218,VALID,0.17793,
1999-12-27, 00:06:01,VALID,0,VALID,99.2411,VALID,0.0169808,VALID,19.4744,VALID,222,VALID,0.385417,
1999-12-27, 00:07:00,VALID,0,VALID,99.2475,VALID,0.0849042,VALID,19.4652,VALID,210,VALID,0.583133,
1999-12-27, 00:08:00,VALID,0,VALID,99.2716,VALID,0.0169808,VALID,19.4592,VALID,206,VALID,0.588682,
1999-12-27, 00:09:00,VALID,0,VALID,99.2551,VALID,-0.0849042,VALID,19.4408,VALID,204,VALID,0.604307,
1999-12-27, 00:10:00,VALID,0,VALID,99.1941,VALID,-0.0509425,VALID,19.3856,VALID,181,VALID,0.57278,
1999-12-27, 00:11:00,VALID,0,VALID,99.1661,VALID,-0.0509425,VALID,19.3244,VALID,173,VALID,0.75362,
1999-12-27, 00:12:00,VALID,0,VALID,99.2106,VALID,-0.0509425,VALID,19.3051,VALID,169,VALID,0.667652,
1999-12-27, 00:13:00,VALID,0,VALID,99.3225,VALID,-0.101885,VALID,19.2884,VALID,177,VALID,0.660156,
1999-12-27, 00:14:00,VALID,0,VALID,99.4624,VALID,-0.0339617,VALID,19.321,VALID,170,VALID,0.591283,
1999-12-27, 00:15:00,VALID,0,VALID,99.5514,VALID,-0.0849042,VALID,19.3727,VALID,168,VALID,0.510074,
1999-12-27, 00:16:00,VALID,0,VALID,99.5832,VALID,-0.0509425,VALID,19.3921,VALID,180,VALID,0.281456,
1999-12-27, 00:17:01,VALID,0,VALID,99.5768,VALID,-0.0509425,VALID,19.402,VALID,187,VALID,0.00566406,
1999-12-27, 00:18:00,VALID,0,VALID,99.5844,VALID,-0.0169808,VALID,19.4152,VALID,196,VALID,0.286258,
1999-12-27, 00:19:00,VALID,0,VALID,99.6429,VALID,0.0169808,VALID,19.4304,VALID,204,VALID,0.358774,
1999-12-27, 00:20:00,VALID,0,VALID,99.6646,VALID,0,VALID,19.4595,VALID,209,VALID,0.4375,
1999-12-27, 00:21:00,VALID,0,VALID,99.6556,VALID,0,VALID,19.4659,VALID,210,VALID,0.535051,
1999-12-27, 00:22:00,VALID,0,VALID,99.6264,VALID,-0.0169808,VALID,19.4759,VALID,196,VALID,0.392064,
1999-12-27, 00:23:00,VALID,0,VALID,99.6506,VALID,-0.0169808,VALID,19.4891,VALID,175,VALID,0.683689,
1999-12-27, 00:24:00,VALID,0,VALID,99.6556,VALID,-0.0169808,VALID,19.4955,VALID,171,VALID,0.690667,
1999-12-27, 00:25:00,VALID,0,VALID,99.6646,VALID,0,VALID,19.5082,VALID,172,VALID,0.516406,
1999-12-27, 00:26:00,VALID,0,VALID,99.6556,VALID,-0.0339617,VALID,19.5018,VALID,165,VALID,0.398026,
1999-12-27, 00:27:00,VALID,0,VALID,99.6328,VALID,-0.0339617,VALID,19.4955,VALID,164,VALID,0.291324,
1999-12-27, 00:28:00,VALID,0,VALID,99.6099,VALID,-0.0169808,VALID,19.4891,VALID,183,VALID,0.390831,
1999-12-27, 00:29:00,VALID,0,VALID,99.6061,VALID,-0.0509425,VALID,19.4791,VALID,179,VALID,0.352344,
1999-12-27, 00:30:00,VALID,0,VALID,99.6315,VALID,-0.0169808,VALID,19.4925,VALID,180,VALID,0.441106,
1999-12-27, 00:31:00,VALID,0,VALID,99.5832,VALID,-0.0169808,VALID,19.4664,VALID,180,VALID,0.488782,
1999-12-27, 00:32:00,VALID,0,VALID,99.5959,VALID,-0.0339617,VALID,19.447,VALID,173,VALID,0.640836,
1999-12-27, 00:33:00,VALID,0,VALID,99.5895,VALID,-0.0339617,VALID,19.4411,VALID,166,VALID,0.682855,
1999-12-27, 00:34:00,VALID,0,VALID,99.6213,VALID,0,VALID,19.4274,VALID,164,VALID,0.750411,
1999-12-27, 00:35:00,VALID,0,VALID,99.6646,VALID,-0.0169808,VALID,19.4373,VALID,158,VALID,0.799352,
1999-12-27, 00:36:00,VALID,0,VALID,99.6582,VALID,0,VALID,19.4279,VALID,145,VALID,1.0152,
1999-12-27, 00:37:00,VALID,0,VALID,99.6722,VALID,-0.0169808,VALID,19.4309,VALID,150,VALID,0.950586,
1999-12-27, 00:38:00,VALID,0,VALID,99.7065,VALID,-0.0339617,VALID,19.4209,VALID,152,VALID,0.898643,
1999-12-27, 00:39:00,VALID,0,VALID,99.7269,VALID,-0.0169808,VALID,19.4403,VALID,155,VALID,0.866776,
1999-12-27, 00:40:00,VALID,0,VALID,99.765,VALID,-0.0509425,VALID,19.4572,VALID,164,VALID,0.836143,
1999-12-27, 00:41:00,VALID,0,VALID,99.7714,VALID,-0.0339617,VALID,19.4632,VALID,179,VALID,0.631641,
1999-12-27, 00:42:00,VALID,0,VALID,99.7892,VALID,-0.0509425,VALID,19.4667,VALID,184,VALID,0.67528,
1999-12-27, 00:43:00,VALID,0,VALID,99.8121,VALID,-0.0509425,VALID,19.4794,VALID,198,VALID,0.741587,
1999-12-27, 00:44:00,VALID,0,VALID,99.8375,VALID,-0.0339617,VALID,19.4893,VALID,194,VALID,0.711571,
1999-12-27, 00:45:00,VALID,0,VALID,99.8566,VALID,-0.0509425,VALID,19.5119,VALID,205,VALID,0.476351,
1999-12-27, 00:46:00,VALID,0,VALID,99.8349,VALID,0,VALID,19.5052,VALID,193,VALID,0.792146,
1999-12-27, 00:47:00,VALID,0,VALID,99.8884,VALID,-0.0679233,VALID,19.5179,VALID,190,VALID,1.05393,
1999-12-27, 00:48:00,VALID,0,VALID,99.9023,VALID,-0.0169808,VALID,19.541,VALID,195,VALID,1.05469,
1999-12-27, 00:49:00,VALID,0,VALID,99.9036,VALID,0,VALID,19.5341,VALID,208,VALID,0.798047,
1999-12-27, 00:50:00,VALID,0,VALID,99.9443,VALID,0,VALID,19.5662,VALID,191,VALID,1.38261,
1999-12-27, 00:51:00,VALID,0,VALID,99.9405,VALID,0,VALID,19.5721,VALID,194,VALID,1.0551,
1999-12-27, 00:52:00,VALID,0,VALID,99.9507,VALID,0.0169808,VALID,19.589,VALID,202,VALID,1.17763,
1999-12-27, 00:53:00,VALID,0,VALID,99.9316,VALID,0,VALID,19.5987,VALID,203,VALID,0.929102,
1999-12-27, 00:54:00,VALID,0,VALID,99.9329,VALID,-0.0169808,VALID,19.589,VALID,197,VALID,0.829327,
1999-12-27, 00:55:00,VALID,0,VALID,99.9532,VALID,0,VALID,19.6084,VALID,205,VALID,0.975962,
1999-12-27, 00:56:00,VALID,0,VALID,99.9519,VALID,-0.0339617,VALID,19.6054,VALID,208,VALID,0.826225,
1999-12-27, 00:57:00,VALID,0,VALID,99.9621,VALID,0,VALID,19.6015,VALID,226,VALID,0.823902,
1999-12-27, 00:58:00,VALID,0,VALID,99.9481,VALID,-0.0169808,VALID,19.5913,VALID,226,VALID,0.612048,
1999-12-27, 00:59:00,VALID,0,VALID,99.9583,VALID,0,VALID,19.6049,VALID,216,VALID,1.04764,
1999-12-27, 01:00:00,VALID,0,VALID,99.9596,VALID,-0.0169808,VALID,19.6114,VALID,234,VALID,0.700591,
1999-12-27, 01:01:00,VALID,0,VALID,99.9557,VALID,-0.0169808,VALID,19.6052,VALID,231,VALID,0.806445,
1999-12-27, 01:02:00,VALID,0,VALID,99.9532,VALID,-0.0339617,VALID,19.6049,VALID,230,VALID,0.961965,
1999-12-27, 01:03:00,VALID,0,VALID,99.9443,VALID,0,VALID,19.6082,VALID,228,VALID,1.10197,
1999-12-27, 01:04:00,VALID,0,VALID,99.9303,VALID,0,VALID,19.6114,VALID,215,VALID,0.962377,
1999-12-27, 01:05:00,VALID,0,VALID,99.9265,VALID,0,VALID,19.598,VALID,233,VALID,1.05195,
1999-12-27, 01:06:00,VALID,0,VALID,99.9367,VALID,0,VALID,19.6015,VALID,224,VALID,0.886418,
1999-12-27, 01:07:00,VALID,0,VALID,99.9316,VALID,0,VALID,19.5987,VALID,212,VALID,0.954127,
1999-12-27, 01:08:00,VALID,0,VALID,99.9176,VALID,0,VALID,19.5853,VALID,213,VALID,0.991132,
1999-12-27, 01:09:00,VALID,0,VALID,99.9316,VALID,0,VALID,19.5823,VALID,203,VALID,0.913851,
1999-12-27, 01:10:00,VALID,0,VALID,99.924,VALID,0,VALID,19.5763,VALID,219,VALID,0.724918,
1999-12-27, 01:11:01,VALID,0,VALID,99.9379,VALID,0,VALID,19.5597,VALID,195,VALID,0.779916,
1999-12-27, 01:12:00,VALID,0,VALID,99.929,VALID,0,VALID,19.5664,VALID,190,VALID,0.706926,
1999-12-27, 01:13:00,VALID,0,VALID,99.9163,VALID,0,VALID,19.5632,VALID,207,VALID,0.30293,
1999-12-27, 01:14:00,VALID,0,VALID,99.9214,VALID,-0.0169808,VALID,19.5398,VALID,200,VALID,0.4669,
1999-12-27, 01:15:00,VALID,0,VALID,99.9189,VALID,0.0169808,VALID,19.55,VALID,191,VALID,0.74301,
1999-12-27, 01:16:00,VALID,0,VALID,99.924,VALID,0,VALID,19.5599,VALID,198,VALID,0.905633,
1999-12-27, 01:17:00,VALID,0,VALID,99.9062,VALID,-0.0169808,VALID,19.5632,VALID,186,VALID,0.678711,
1999-12-27, 01:18:00,VALID,0,VALID,99.8845,VALID,-0.0169808,VALID,19.547,VALID,183,VALID,0.798878,
1999-12-27, 01:19:00,VALID,0,VALID,99.8858,VALID,-0.0339617,VALID,19.5408,VALID,194,VALID,0.887821,
1999-12-27, 01:20:00,VALID,0,VALID,99.8833,VALID,-0.0339617,VALID,19.5572,VALID,211,VALID,0.775127,
1999-12-27, 01:21:00,VALID,0,VALID,99.882,VALID,-0.0339617,VALID,19.5634,VALID,204,VALID,0.834248,
1999-12-27, 01:22:01,VALID,0,VALID,99.8349,VALID,-0.0679233,VALID,19.5632,VALID,198,VALID,1.0808,
1999-12-27, 01:23:01,VALID,0,VALID,99.8044,VALID,-0.0509425,VALID,19.5664,VALID,199,VALID,0.91673,
1999-12-27, 01:24:00,VALID,0,VALID,99.7726,VALID,-0.0509425,VALID,19.5572,VALID,199,VALID,1.10051,
1999-12-27, 01:25:00,VALID,0,VALID,99.765,VALID,-0.0169808,VALID,19.5699,VALID,213,VALID,1.08164,
1999-12-27, 01:26:00,VALID,0,VALID,99.751,VALID,-0.0169808,VALID,19.5925,VALID,210,VALID,0.878495,
1999-12-27, 01:27:00,VALID,0,VALID,99.6989,VALID,-0.0339617,VALID,19.6223,VALID,226,VALID,0.966283,
1999-12-27, 01:28:00,VALID,0,VALID,99.6251,VALID,-0.0509425,VALID,19.6313,VALID,234,VALID,1.04306,
1999-12-27, 01:29:00,VALID,0,VALID,99.6061,VALID,-0.0169808,VALID,19.6447,VALID,238,VALID,1.13984,
1999-12-27, 01:30:00,VALID,0,VALID,99.5972,VALID,-0.0509425,VALID,19.6639,VALID,251,VALID,0.789063,
1999-12-27, 01:31:00,VALID,0,VALID,99.545,VALID,-0.0169808,VALID,19.6865,VALID,231,VALID,0.723558,
1999-12-27, 01:32:00,VALID,0,VALID,99.5069,VALID,-0.0339617,VALID,19.6868,VALID,226,VALID,0.733319,
1999-12-27, 01:33:00,VALID,0,VALID,99.4509,VALID,-0.0339617,VALID,19.6902,VALID,224,VALID,0.830025,
1999-12-27, 01:34:01,VALID,0,VALID,99.4013,VALID,-0.0169808,VALID,19.6763,VALID,220,VALID,1.02488,
1999-12-27, 01:35:00,VALID,0,VALID,99.3708,VALID,-0.0169808,VALID,19.6636,VALID,226,VALID,0.89939,
1999-12-27, 01:36:00,VALID,0,VALID,99.3238,VALID,-0.0339617,VALID,19.6699,VALID,210,VALID,0.727196,
1999-12-27, 01:37:00,VALID,0,VALID,99.2475,VALID,0,VALID,19.6405,VALID,209,VALID,0.682422,
1999-12-27, 01:38:00,VALID,0,VALID,99.2182,VALID,0,VALID,19.6278,VALID,212,VALID,0.671669,
1999-12-27, 01:39:00,VALID,0,VALID,99.2233,VALID,-0.0339617,VALID,19.6248,VALID,208,VALID,0.777549,
1999-12-27, 01:40:00,VALID,0,VALID,99.086,VALID,-0.0339617,VALID,19.5992,VALID,168,VALID,0.476563,
1999-12-27, 01:41:00,VALID,0,VALID,99.0631,VALID,-0.0509425,VALID,19.5701,VALID,187,VALID,0.729297,
1999-12-27, 01:42:00,VALID,0,VALID,99.0287,VALID,-0.0509425,VALID,19.5408,VALID,192,VALID,0.573518,
1999-12-27, 01:43:00,VALID,0,VALID,99.0084,VALID,-0.0509425,VALID,19.5249,VALID,183,VALID,0.707933,
1999-12-27, 01:44:00,VALID,0,VALID,98.9639,VALID,-0.0509425,VALID,19.4955,VALID,210,VALID,0.674409,
1999-12-27, 01:45:01,VALID,0,VALID,98.9385,VALID,-0.0679233,VALID,19.4634,VALID,209,VALID,0.682644,
1999-12-27, 01:46:00,VALID,0,VALID,98.9868,VALID,-0.0339617,VALID,19.4535,VALID,219,VALID,0.803248,
1999-12-27, 01:47:00,VALID,0,VALID,98.9855,VALID,-0.0339617,VALID,19.4577,VALID,220,VALID,0.830221,
1999-12-27, 01:48:00,VALID,0,VALID,98.9919,VALID,-0.0339617,VALID,19.4411,VALID,220,VALID,1.09671,
1999-12-27, 01:49:00,VALID,0,VALID,99.0249,VALID,-0.0509425,VALID,19.4214,VALID,214,VALID,0.774414,
1999-12-27, 01:50:00,VALID,0,VALID,98.9944,VALID,-0.0339617,VALID,19.415,VALID,229,VALID,0.582031,
1999-12-27, 01:51:00,VALID,0,VALID,98.9982,VALID,-0.0169808,VALID,19.3953,VALID,241,VALID,0.605263,
1999-12-27, 01:52:00,VALID,0,VALID,99.0478,VALID,-0.0169808,VALID,19.399,VALID,223,VALID,0.451686,
1999-12-27, 01:53:00,VALID,0,VALID,99.0694,VALID,-0.0339617,VALID,19.3821,VALID,236,VALID,0.324414,
1999-12-27, 01:54:01,VALID,0,VALID,99.1,VALID,-0.0169808,VALID,19.399,VALID,322,VALID,0.473558,
1999-12-27, 01:55:00,VALID,0,VALID,99.1114,VALID,-0.0169808,VALID,19.3856,VALID,348,VALID,0.475962,
1999-12-27, 01:56:01,VALID,0,VALID,99.1724,VALID,-0.0339617,VALID,19.4055,VALID,35,VALID,0.465583,
1999-12-27, 01:57:00,VALID,0,VALID,99.208,VALID,-0.0339617,VALID,19.3856,VALID,51,VALID,0.272593,
1999-12-27, 01:58:00,VALID,0,VALID,99.1508,VALID,-0.0339617,VALID,19.3605,VALID,89,VALID,0.86986,
1999-12-27, 01:59:00,VALID,0,VALID,98.9919,VALID,-0.0339617,VALID,19.2762,VALID,91,VALID,0.955412,
1999-12-27, 02:00:00,VALID,0,VALID,99.0046,VALID,-0.0169808,VALID,19.2404,VALID,94,VALID,0.985642,
1999-12-27, 02:01:00,VALID,0,VALID,99.0453,VALID,-0.0509425,VALID,19.212,VALID,93,VALID,0.982813,
1999-12-27, 02:02:00,VALID,0,VALID,99.0364,VALID,-0.0509425,VALID,19.1407,VALID,113,VALID,0.755551,
1999-12-27, 02:03:00,VALID,0,VALID,99.0783,VALID,-0.0849042,VALID,19.1051,VALID,115,VALID,0.524054,
1999-12-27, 02:04:00,VALID,0,VALID,99.1394,VALID,-0.0679233,VALID,19.0763,VALID,100,VALID,0.795436,
1999-12-27, 02:05:00,VALID,0,VALID,99.2271,VALID,0,VALID,19.0728,VALID,92,VALID,0.752148,
1999-12-27, 02:06:01,VALID,0,VALID,99.3149,VALID,-0.0679233,VALID,19.0564,VALID,101,VALID,0.824519,
1999-12-27, 02:07:01,VALID,0,VALID,99.4382,VALID,-0.0849042,VALID,19.0929,VALID,102,VALID,0.613582,
1999-12-27, 02:08:00,VALID,0,VALID,99.5323,VALID,-0.0339617,VALID,19.1054,VALID,113,VALID,0.656883,
1999-12-27, 02:09:00,VALID,0,VALID,99.6073,VALID,0,VALID,19.1307,VALID,116,VALID,0.708826,
1999-12-27, 02:10:00,VALID,0,VALID,99.6556,VALID,-0.0169808,VALID,19.1531,VALID,153,VALID,0.573602,
1999-12-27, 02:11:00,VALID,0,VALID,99.723,VALID,-0.0509425,VALID,19.1633,VALID,184,VALID,0.533537,
1999-12-27, 02:12:00,VALID,0,VALID,99.7828,VALID,-0.0509425,VALID,19.1762,VALID,213,VALID,0.791174,
1999-12-27, 02:13:00,VALID,0,VALID,99.7625,VALID,-0.0509425,VALID,19.1961,VALID,213,VALID,0.939258,
1999-12-27, 02:14:00,VALID,0,VALID,99.723,VALID,-0.0509425,VALID,19.1467,VALID,224,VALID,0.861225,
1999-12-27, 02:15:00,VALID,0,VALID,99.7943,VALID,-0.0849042,VALID,19.1437,VALID,208,VALID,0.997533,
1999-12-27, 02:16:00,VALID,0,VALID,99.821,VALID,-0.0679233,VALID,19.17,VALID,205,VALID,0.675987,
1999-12-27, 02:17:01,VALID,0,VALID,99.7752,VALID,-0.0509425,VALID,19.1509,VALID,207,VALID,0.747852,
1999-12-27, 02:18:01,VALID,0,VALID,99.7574,VALID,-0.0339617,VALID,19.0979,VALID,199,VALID,0.64363,
1999-12-27, 02:19:00,VALID,0,VALID,99.7803,VALID,-0.0169808,VALID,19.079,VALID,188,VALID,0.765825,
1999-12-27, 02:20:00,VALID,0,VALID,99.7777,VALID,0,VALID,19.0629,VALID,191,VALID,0.765414,
1999-12-27, 02:21:00,VALID,0,VALID,99.7345,VALID,-0.0339617,VALID,18.998,VALID,155,VALID,0.263514,
1999-12-27, 02:22:00,VALID,0,VALID,99.6556,VALID,0,VALID,18.9176,VALID,156,VALID,0.511719,
1999-12-27, 02:23:00,VALID,0,VALID,99.6989,VALID,0,VALID,18.8692,VALID,187,VALID,0.628049,
1999-12-27, 02:24:00,VALID,0,VALID,99.8502,VALID,0,VALID,18.8883,VALID,207,VALID,0.918285,
1999-12-27, 02:25:00,VALID,0,VALID,99.929,VALID,0,VALID,18.9465,VALID,219,VALID,1.08379,
1999-12-27, 02:26:00,VALID,0,VALID,99.9151,VALID,0.0169808,VALID,18.9564,VALID,222,VALID,0.870683,
1999-12-27, 02:27:00,VALID,0,VALID,99.8858,VALID,-0.0169808,VALID,18.9433,VALID,221,VALID,0.801398,
1999-12-27, 02:28:00,VALID,0,VALID,99.8718,VALID,-0.0169808,VALID,18.9271,VALID,226,VALID,0.991571,
1999-12-27, 02:29:00,VALID,0,VALID,99.8566,VALID,-0.0339617,VALID,18.9079,VALID,228,VALID,0.969727,
1999-12-27, 02:30:00,VALID,0,VALID,99.8756,VALID,-0.0169808,VALID,18.8916,VALID,224,VALID,1.20713,
1999-12-27, 02:31:00,VALID,0,VALID,99.8934,VALID,0,VALID,18.8816,VALID,224,VALID,0.899439,
1999-12-27, 02:32:00,VALID,0,VALID,99.9011,VALID,0,VALID,18.865,VALID,220,VALID,0.856841,
1999-12-27, 02:33:00,VALID,0,VALID,99.9062,VALID,-0.0339617,VALID,18.8625,VALID,219,VALID,1.00338,
1999-12-27, 02:34:00,VALID,0,VALID,99.9341,VALID,0,VALID,18.8558,VALID,215,VALID,1.17887,
1999-12-27, 02:35:00,VALID,0,VALID,99.9929,VALID,0,VALID,18.8881,VALID,220,VALID,1.02306,
1999-12-27, 02:36:00,VALID,0,VALID,99.987,VALID,0,VALID,18.8913,VALID,218,VALID,0.67272,
1999-12-27, 02:37:00,VALID,0,VALID,99.985,VALID,-0.0169808,VALID,18.8883,VALID,213,VALID,0.792188,
1999-12-27, 02:38:00,VALID,0,VALID,99.9934,VALID,0,VALID,18.8786,VALID,220,VALID,0.812089,
1999-12-27, 02:39:00,VALID,0,VALID,100,VALID,-0.0169808,VALID,18.8848,VALID,208,VALID,0.894942,
1999-12-27, 02:40:00,VALID,0,VALID,100,VALID,0,VALID,18.8916,VALID,210,VALID,0.547903,
1999-12-27, 02:41:00,VALID,0,VALID,100,VALID,0.0169808,VALID,18.8948,VALID,211,VALID,0.705664,
1999-12-27, 02:42:00,VALID,0,VALID,100,VALID,0,VALID,18.8985,VALID,208,VALID,0.765425,
1999-12-27, 02:43:00,VALID,0,VALID,100,VALID,-0.0169808,VALID,18.9368,VALID,207,VALID,0.473157,
1999-12-27, 02:44:00,VALID,0,VALID,100,VALID,-0.0339617,VALID,18.9728,VALID,203,VALID,0.38978,
1999-12-27, 02:45:00,VALID,0,VALID,100,VALID,-0.0169808,VALID,18.9174,VALID,208,VALID,0,
1999-12-27, 02:46:00,VALID,0,VALID,100,VALID,-0.0169808,VALID,18.9368,VALID,205,VALID,0,
1999-12-27, 02:47:00,VALID,0,VALID,100,VALID,-0.0169808,VALID,18.9276,VALID,213,VALID,0,
1999-12-27, 02:48:00,VALID,0,VALID,100,VALID,-0.0169808,VALID,18.8955,VALID,218,VALID,0,
1999-12-27, 02:49:00,VALID,0,VALID,100,VALID,-0.0339617,VALID,18.8562,VALID,241,VALID,0.146484,
1999-12-27, 02:50:00,VALID,0,VALID,100,VALID,-0.0339617,VALID,18.8567,VALID,229,VALID,0.539679,
1999-12-27, 02:51:00,VALID,0,VALID,100,VALID,-0.0339617,VALID,18.8435,VALID,230,VALID,0.629729,
1999-12-27, 02:52:00,VALID,0,VALID,100,VALID,-0.0339617,VALID,18.8468,VALID,233,VALID,0.520354,
1999-12-27, 02:53:00,VALID,0,VALID,100,VALID,-0.0339617,VALID,18.8664,VALID,210,VALID,0.368945,
1999-12-27, 02:54:00,VALID,0,VALID,100,VALID,-0.0679233,VALID,18.8403,VALID,228,VALID,0.245593,
1999-12-27, 02:55:00,VALID,0,VALID,100,VALID,-0.0169808,VALID,18.8341,VALID,240,VALID,0.347356,
1999-12-27, 02:56:00,VALID,0,VALID,99.9954,VALID,-0.0169808,VALID,18.7916,VALID,223,VALID,0.286951,
1999-12-27, 02:57:00,VALID,0,VALID,99.9952,VALID,-0.0509425,VALID,18.7856,VALID,239,VALID,0.131968,
1999-12-27, 02:58:00,VALID,0,VALID,99.9875,VALID,-0.0169808,VALID,18.7556,VALID,247,VALID,0.00308388,
1999-12-27, 02:59:00,VALID,0,VALID,99.8464,VALID,0,VALID,18.6071,VALID,215,VALID,0,
1999-12-27, 03:00:00,VALID,0,VALID,99.7116,VALID,-0.0339617,VALID,18.4781,VALID,198,VALID,0,
1999-12-27, 03:01:00,VALID,0,VALID,99.6862,VALID,-0.0339617,VALID,18.404,VALID,150,VALID,0,
1999-12-27, 03:02:00,VALID,0,VALID,99.7218,VALID,-0.0339617,VALID,18.3747,VALID,137,VALID,0,
1999-12-27, 03:03:00,VALID,0,VALID,99.8489,VALID,-0.0169808,VALID,18.4268,VALID,137,VALID,0,
1999-12-27, 03:04:00,VALID,0,VALID,99.9817,VALID,-0.0169808,VALID,18.4813,VALID,142,VALID,0,
1999-12-27, 03:05:00,VALID,0,VALID,100,VALID,-0.0339617,VALID,18.5397,VALID,150,VALID,0.0162109,
1999-12-27, 03:06:00,VALID,0,VALID,100,VALID,-0.0169808,VALID,18.582,VALID,149,VALID,1.17288,
1999-12-27, 03:07:00,VALID,0,VALID,100,VALID,-0.0509425,VALID,18.5755,VALID,172,VALID,1.02364,
1999-12-27, 03:08:00,VALID,0,VALID,100,VALID,-0.0339617,VALID,18.5626,VALID,195,VALID,1.08953,
1999-12-27, 03:09:00,VALID,0,VALID,100,VALID,0,VALID,18.6623,VALID,217,VALID,0.809966,
1999-12-27, 03:10:00,VALID,0,VALID,100,VALID,0,VALID,18.6727,VALID,228,VALID,0.809211,
1999-12-27, 03:11:01,VALID,0,VALID,100,VALID,0,VALID,18.708,VALID,223,VALID,0.75705,
1999-12-27, 03:12:00,VALID,0,VALID,100,VALID,0,VALID,18.721,VALID,225,VALID,0.529772,
1999-12-27, 03:13:00,VALID,0,VALID,100,VALID,-0.0169808,VALID,18.7143,VALID,237,VALID,0.445508,
1999-12-27, 03:14:00,VALID,0,VALID,99.9964,VALID,0,VALID,18.7018,VALID,219,VALID,0.628289,
1999-12-27, 03:15:00,VALID,0,VALID,99.9954,VALID,-0.0339617,VALID,18.6591,VALID,226,VALID,0.962171,
1999-12-27, 03:16:00,VALID,0,VALID,100,VALID,0,VALID,18.6757,VALID,220,VALID,0.575247,
1999-12-27, 03:17:00,VALID,0,VALID,99.9893,VALID,-0.0169808,VALID,18.6792,VALID,222,VALID,0.735742,
1999-12-27, 03:18:00,VALID,0,VALID,99.9685,VALID,-0.0169808,VALID,18.6496,VALID,213,VALID,0.914263,
1999-12-27, 03:19:00,VALID,0,VALID,99.9468,VALID,0,VALID,18.6143,VALID,212,VALID,1.11398,
1999-12-27, 03:20:00,VALID,0,VALID,100,VALID,0,VALID,18.6628,VALID,225,VALID,1.17969,
1999-12-27, 03:21:00,VALID,0,VALID,100,VALID,-0.0169808,VALID,18.7113,VALID,230,VALID,1.20439,
1999-12-27, 03:22:01,VALID,0,VALID,100,VALID,0,VALID,18.7272,VALID,232,VALID,1.11328,
1999-12-27, 03:23:01,VALID,0,VALID,100,VALID,-0.0169808,VALID,18.7436,VALID,240,VALID,0.898628,
1999-12-27, 03:24:00,VALID,0,VALID,100,VALID,-0.0339617,VALID,18.7274,VALID,240,VALID,0.652238,
1999-12-27, 03:25:00,VALID,0,VALID,99.9858,VALID,-0.0169808,VALID,18.6949,VALID,234,VALID,0.697461,
1999-12-27, 03:26:00,VALID,0,VALID,99.957,VALID,0,VALID,18.6501,VALID,226,VALID,0.623972,
1999-12-27, 03:27:00,VALID,0,VALID,99.9418,VALID,-0.0169808,VALID,18.624,VALID,213,VALID,0.710526,
1999-12-27, 03:28:00,VALID,0,VALID,99.9519,VALID,0,VALID,18.5977,VALID,193,VALID,0.315995,
1999-12-27, 03:29:00,VALID,0,VALID,99.8973,VALID,-0.0169808,VALID,18.5658,VALID,143,VALID,0.439648,
1999-12-27, 03:30:00,VALID,0,VALID,99.8337,VALID,0,VALID,18.4848,VALID,138,VALID,0.731571,
1999-12-27, 03:31:00,VALID,0,VALID,99.8121,VALID,0,VALID,18.4363,VALID,132,VALID,0.798478,
1999-12-27, 03:32:00,VALID,0,VALID,99.7765,VALID,-0.0509425,VALID,18.4042,VALID,130,VALID,0.903083,
1999-12-27, 03:33:00,VALID,0,VALID,99.8006,VALID,0.0509425,VALID,18.377,VALID,125,VALID,1.03505,
1999-12-27, 03:34:01,VALID,0,VALID,99.9329,VALID,0.0849042,VALID,18.4377,VALID,136,VALID,0.936678,
1999-12-27, 03:35:00,VALID,0,VALID,99.9957,VALID,0.0849042,VALID,18.4931,VALID,135,VALID,0.81593,
1999-12-27, 03:36:00,VALID,0,VALID,99.9481,VALID,0.0679233,VALID,18.4839,VALID,134,VALID,0.763725,
1999-12-27, 03:37:00,VALID,0,VALID,99.854,VALID,0.0679233,VALID,18.4093,VALID,128,VALID,0.362109,
1999-12-27, 03:38:00,VALID,0,VALID,99.8044,VALID,0.0509425,VALID,18.3869,VALID,149,VALID,0.424137,
1999-12-27, 03:39:00,VALID,0,VALID,99.8248,VALID,0.0679233,VALID,18.3897,VALID,148,VALID,0.560238,
1999-12-27, 03:40:00,VALID,0,VALID,99.8133,VALID,0.0679233,VALID,18.3606,VALID,159,VALID,0.773643,
1999-12-27, 03:41:00,VALID,0,VALID,99.8985,VALID,0.0679233,VALID,18.4222,VALID,160,VALID,0.81582,
1999-12-27, 03:42:00,VALID,0,VALID,99.9687,VALID,0.101885,VALID,18.4769,VALID,176,VALID,1.26863,
1999-12-27, 03:43:00,VALID,0,VALID,99.9842,VALID,0.101885,VALID,18.558,VALID,161,VALID,1.0016,
1999-12-27, 03:44:00,VALID,0,VALID,99.9746,VALID,0.0679233,VALID,18.6129,VALID,174,VALID,0.85853,
1999-12-27, 03:45:00,VALID,0,VALID,99.8896,VALID,0.0509425,VALID,18.6159,VALID,162,VALID,1.03991,
1999-12-27, 03:46:00,VALID,0,VALID,99.7625,VALID,0.135847,VALID,18.6062,VALID,163,VALID,1.29235,
1999-12-27, 03:47:00,VALID,0,VALID,99.6315,VALID,0.101885,VALID,18.5706,VALID,149,VALID,1.17797,
1999-12-27, 03:48:00,VALID,0,VALID,99.4802,VALID,0.0169808,VALID,18.4903,VALID,156,VALID,1.35515,
1999-12-27, 03:49:00,VALID,0,VALID,99.4814,VALID,0,VALID,18.4592,VALID,174,VALID,1.16055,
1999-12-27, 03:50:00,VALID,0,VALID,99.7281,VALID,-0.0339617,VALID,18.4693,VALID,185,VALID,1.29708,
1999-12-27, 03:51:00,VALID,0,VALID,99.8273,VALID,0,VALID,18.5143,VALID,191,VALID,1.32771,
1999-12-27, 03:52:00,VALID,0,VALID,99.8731,VALID,-0.0339617,VALID,18.5076,VALID,193,VALID,1.2831,
1999-12-27, 03:53:00,VALID,0,VALID,99.9265,VALID,0,VALID,18.524,VALID,204,VALID,0.892383,
1999-12-27, 03:54:00,VALID,0,VALID,99.9062,VALID,-0.0169808,VALID,18.5076,VALID,211,VALID,0.960136,
1999-12-27, 03:55:00,VALID,0,VALID,99.9519,VALID,0,VALID,18.5176,VALID,218,VALID,1.01963,
1999-12-27, 03:56:00,VALID,0,VALID,99.9379,VALID,0,VALID,18.5139,VALID,207,VALID,0.904561,
1999-12-27, 03:57:00,VALID,0,VALID,99.9456,VALID,-0.0169808,VALID,18.494,VALID,204,VALID,0.991132,
1999-12-27, 03:58:00,VALID,0,VALID,99.9634,VALID,0,VALID,18.4786,VALID,226,VALID,1.05715,
1999-12-27, 03:59:00,VALID,0,VALID,99.987,VALID,0,VALID,18.5014,VALID,212,VALID,1.10785,
1999-12-27, 04:00:00,VALID,0,VALID,100,VALID,0,VALID,18.5076,VALID,208,VALID,1.14063,
1999-12-27, 04:01:00,VALID,0,VALID,99.9868,VALID,0,VALID,18.5074,VALID,203,VALID,1.15645,
1999-12-27, 04:02:00,VALID,0,VALID,99.9954,VALID,-0.0169808,VALID,18.4719,VALID,219,VALID,1.10609,
1999-12-27, 04:03:00,VALID,0,VALID,100,VALID,-0.0679233,VALID,18.4786,VALID,227,VALID,1.04893,
1999-12-27, 04:04:00,VALID,0,VALID,100,VALID,-0.0679233,VALID,18.4855,VALID,221,VALID,0.614104,
1999-12-27, 04:05:00,VALID,0,VALID,100,VALID,-0.0849042,VALID,18.5049,VALID,219,VALID,0.97168,